Weather History for CYBW - February, 2013

Change the Weather History Date:

Monday, February 18, 2013

  Actual Average Record
Temperature  
Mean Temperature 19 °F -  
Max Temperature 25 °F 32 °F 46 °F (2008)
Min Temperature 13 °F 11 °F -11 °F (2011)
Degree Days  
Heating Degree Days 46    
Moisture  
Dew Point 18 °F    
Average Humidity 94    
Maximum Humidity 100    
Minimum Humidity 85    
Precipitation  
Precipitation 0.00 in - - ()
Sea Level Pressure  
Sea Level Pressure 30.10 in    
Wind  
Wind Speed 10 mph ()    
Max Wind Speed 18 mph    
Max Gust Speed 20 mph    
Visibility 4.9 miles    
Events Fog , Snow    
Averages and records for this station are not official NWS values.
T = Trace of Precipitation, MM = Missing Value Source: Averaged Metar Reports

Daily Weather History Graph

Daily Weather History Graph

Search for Another Location

Airport or City:

Trip Planner

Search our weather history database for the weather conditions in past years. The results will help you decide how hot, cold, wet, or windy it might be!

Date:

Astronomy

Feb. 18, 2013 Rise Set
Actual Time 7:43 AM MST 5:59 PM MST
Civil Twilight 7:09 AM MST 6:33 PM MST
Nautical Twilight 6:31 AM MST 7:12 PM MST
Astronomical Twilight 5:53 AM MST 7:50 PM MST
Moon 11:28 AM MST (2/18) 2:46 AM MST (2/18)
Length of Visible Light 11h 23m
Length of Day
10h 15m
First Quarter, 59% of the Moon is Illuminated
Feb 18
First Quarter
Feb 25
Full
Mar 4
Last Quarter
Mar 11
New
Mar 19
First Quarter

Hourly Weather History & Observations

Time (MST) Temp. Windchill Dew Point Humidity Pressure Visibility Wind Dir Wind Speed Gust Speed Precip Events Conditions
5:00 AM 17 °F - 16 °F 93% 30.17 in 7 mi SSE 6.9 mph - -   Overcast
5:00 AM 17.6 °F 8.2 °F 15.8 °F 93% 30.16 in 8.0 mi SSE 6.9 mph - N/A   Overcast
6:00 AM 17.6 °F 6.4 °F 15.8 °F 93% 30.17 in 7.0 mi SE 9.2 mph - N/A Fog Overcast
7:00 AM 17.6 °F 6.4 °F 15.8 °F 93% 30.17 in 10.0 mi SE 9.2 mph - N/A   Overcast
7:54 AM 17.6 °F 7.3 °F 15.8 °F 93% 30.17 in 1.8 mi SSE 8.1 mph - N/A   Overcast
8:00 AM 15.8 °F 2.7 °F 15.8 °F 100% 30.17 in 1.0 mi South 11.5 mph - N/A   Overcast
8:02 AM 15.8 °F 2.1 °F 15.8 °F 100% 30.17 in 0.6 mi South 12.7 mph - N/A   Overcast
8:45 AM 17.6 °F 5.0 °F 15.8 °F 93% 30.16 in 1.2 mi South 11.5 mph 18.4 mph N/A   Overcast
9:00 AM 17.6 °F 5.0 °F 15.8 °F 93% 30.17 in 1.0 mi SSE 11.5 mph - N/A   Overcast
9:40 AM 17.6 °F 5.7 °F 17.6 °F 100% 30.16 in 4.0 mi SSE 10.4 mph - N/A   Overcast
10:00 AM 17.6 °F 3.2 °F 15.8 °F 93% 30.16 in 6.0 mi SSE 15.0 mph - N/A   Overcast
10:57 AM 19.4 °F 6.0 °F 17.6 °F 93% 30.15 in 3.0 mi SSE 13.8 mph - N/A   Overcast
11:00 AM 19 °F - 17 °F 88% 30.15 in 3 mi SSE 13.8 mph - -   Mist
11:00 AM 19.4 °F 6.0 °F 17.6 °F 93% 30.15 in 3.0 mi SSE 13.8 mph - N/A   Overcast
11:18 AM 17.6 °F 3.7 °F 17.6 °F 100% 30.16 in 2.0 mi SSE 13.8 mph - N/A   Overcast
12:00 PM 19.4 °F 5.5 °F 17.6 °F 93% 30.13 in 1.8 mi SE 15.0 mph - N/A   Overcast
12:45 PM 19.4 °F 5.5 °F 17.6 °F 93% 30.12 in 1.0 mi SE 15.0 mph - N/A   Overcast
12:56 PM 19.4 °F 6.6 °F 17.6 °F 93% 30.10 in 1.0 mi SSE 12.7 mph - N/A   Overcast
1:00 PM 19.4 °F 7.2 °F 17.6 °F 93% 30.10 in 1.0 mi SE 11.5 mph - N/A   Overcast
2:00 PM 21.2 °F 7.3 °F 19.4 °F 93% 30.06 in 4.0 mi SSE 16.1 mph - N/A Snow Light Snow
3:00 PM 23.0 °F 11.1 °F 21.2 °F 93% 30.04 in 10.0 mi SSE 12.7 mph - N/A   Overcast
4:00 PM 23.0 °F 13.1 °F 21.2 °F 93% 30.04 in 10.0 mi SE 9.2 mph - N/A   Overcast
5:00 PM 25 °F - 22 °F 85% 30.01 in 7 mi ESE 11.5 mph - -   Overcast
5:00 PM 24.8 °F 14.0 °F 23.0 °F 93% 30.01 in 8.0 mi ESE 11.5 mph - N/A   Overcast
6:00 PM 23.0 °F 11.7 °F 21.2 °F 93% 29.99 in 8.0 mi ESE 11.5 mph - N/A   Overcast
7:00 PM 23.0 °F 11.7 °F 21.2 °F 93% 29.98 in 12.0 mi ESE 11.5 mph - N/A   Overcast
8:00 PM 23.0 °F 10.6 °F 21.2 °F 93% 29.97 in 12.0 mi SE 13.8 mph - N/A   Overcast
9:00 PM 23.0 °F 8.7 °F 21.2 °F 93% 29.95 in 4.0 mi SE 18.4 mph - N/A   Overcast
10:00 PM 23.0 °F 11.1 °F 21.2 °F 93% 29.94 in 4.0 mi SE 12.7 mph 19.6 mph N/A   Overcast